Flag for Canada Weather past 2 weeks in Conception Bay South, Newfoundland and Labrador, Canada

Now
39 °F

Mostly cloudy.


Feels Like: 30 °F
Forecast: 38 / 47 °F
Wind: 17 mph from West

Location: St. John's

Current Time: Jun 3, 2015 at 3:42:18 AM

Latest Report: Jun 3, 2015 at 2:30 AM


Visibility: 15 mi

Pressure: 30.33 "Hg

Humidity: 65%

Dew point: 28 °F

Location of Conception Bay SouthLocation

Historic Weather in Conception Bay South — Graph

°F

Conception Bay South temperature yesterday

Maximum temperature yesterday: 52 °F (at 2:30 PM)
Minimum temperature yesterday: 28 °F (at 4:30 AM)
Average temperature yesterday: 42 °F

Past Weeks' High & Low Weather Summary

 TemperatureHumidityPressure
High73 °F (May 26, 2:30 PM)100% (May 19, 2:30 AM)30.44 "Hg (May 19, 2:30 AM)
Low28 °F (Jun 2, 4:30 AM)32% (May 22, 4:30 PM)29.49 "Hg (May 21, 9:30 AM)
Average50 °F79%30.06 "Hg
* Reported May 19 2:30 AM — Jun 3 2:30 AM, Conception Bay South, Weather by CustomWeather, © 2015

Note: Actual official high and low records may vary slightly from our data, if they occured in-between our weather recording intervals... More about our weather records

Advertising

Conception Bay South weather history for previous 24 hours

 ConditionsComfort  
Time TempWeatherWind HumidityBarometerVisibility
2:30 AM
Wed, Jun 3
39 °FMostly cloudy.17 mph65%30.33 "Hg15 mi
1:30 AM39 °FOvercast.15 mph70%30.35 "Hg15 mi
12:30 AM41 °FOvercast.16 mph70%30.36 "Hg15 mi
11:30 PM
Tue, Jun 2
41 °FOvercast.14 mph66%30.37 "Hg15 mi
10:30 PM43 °FOvercast.15 mph61%30.36 "Hg15 mi
9:30 PM45 °FOvercast.17 mph57%30.35 "Hg15 mi
8:30 PM46 °FOvercast.13 mph57%30.34 "Hg15 mi
7:30 PM46 °FOvercast.8 mph66%30.35 "Hg15 mi
6:30 PM48 °FMore clouds than sun.10 mph58%30.35 "Hg15 mi
5:30 PM50 °FOvercast.12 mph54%30.36 "Hg15 mi
4:30 PM50 °FBroken clouds.15 mph50%30.36 "Hg15 mi
3:30 PM52 °FPartly sunny.18 mph44%30.37 "Hg15 mi
2:30 PM52 °FPartly sunny.13 mph47%30.37 "Hg15 mi
1:30 PM50 °FBroken clouds.15 mph47%30.40 "Hg15 mi
12:30 PM50 °FScattered clouds.13 mph50%30.40 "Hg15 mi
11:30 AM48 °FScattered clouds.13 mph54%30.41 "Hg15 mi
10:30 AM46 °FScattered clouds.12 mph57%30.41 "Hg15 mi
9:30 AM46 °FScattered clouds.5 mph53%30.42 "Hg15 mi
8:30 AM41 °FScattered clouds.No wind66%30.43 "Hg15 mi
7:30 AM39 °FPassing clouds.5 mph65%30.42 "Hg15 mi
6:30 AM34 °FScattered clouds.5 mph87%30.42 "Hg15 mi
5:30 AM32 °FPassing clouds.7 mph87%30.42 "Hg15 mi
4:30 AM28 °FPassing clouds.8 mph93%30.44 "Hg15 mi
3:30 AM30 °FPassing clouds.6 mph93%30.43 "Hg15 mi
Weather by CustomWeather, © 2015

See weather overviewHow to use our weather pages